<?xml version="1.0" encoding="UTF-8" standalone="no" ?>
<gpx xmlns="http://www.topografix.com/GPX/1/1" xmlns:xsi="http://www.w3.org/2001/XMLSchema-instance" xsi:schemaLocation="http://www.topografix.com/GPX/1/1 http://www.topografix.com/GPX/1/1/gpx.xsd" version="1.1" creator="VisuGPX - https://www.visugpx.com">
  <metadata>
    <name>les hauteurs de volvic</name>
  </metadata>
  <trk>
    <name><![CDATA[les hauteurs de volvic_1]]></name>
    <trkseg>
      <trkpt lat="45.91167" lon="3.08658">
        <ele>397.8</ele>
      </trkpt>
    </trkseg>
  </trk>
  <trk>
    <name><![CDATA[Cirkwi-Sur_les_hauteurs_de_Volvic_-_Parcours_trail.gpx]]></name>
    <extensions>
      <line xmlns="http://www.topografix.com/GPX/gpx_style/0/2">
        <color>0000FF</color>
        <width>4</width>
      </line>
    </extensions>
    <trkseg>
      <trkpt lat="45.87244" lon="3.03733">
        <ele>514.6</ele>
        <time>1970-01-01T00:00:00Z</time>
      </trkpt>
      <trkpt lat="45.87274" lon="3.03753">
        <ele>514.7</ele>
        <time>1970-01-01T00:00:00Z</time>
      </trkpt>
      <trkpt lat="45.87301" lon="3.03776">
        <ele>513.9</ele>
        <time>1970-01-01T00:00:00Z</time>
      </trkpt>
      <trkpt lat="45.87307" lon="3.03786">
        <ele>513.3</ele>
        <time>1970-01-01T00:00:00Z</time>
      </trkpt>
      <trkpt lat="45.87308" lon="3.03787">
        <ele>513.2</ele>
        <time>1970-01-01T00:00:00Z</time>
      </trkpt>
      <trkpt lat="45.87322" lon="3.03811">
        <ele>511.7</ele>
        <time>1970-01-01T00:00:00Z</time>
      </trkpt>
      <trkpt lat="45.87338" lon="3.03797">
        <ele>513.9</ele>
        <time>1970-01-01T00:00:00Z</time>
      </trkpt>
      <trkpt lat="45.87347" lon="3.03779">
        <ele>517.3</ele>
        <time>1970-01-01T00:00:00Z</time>
      </trkpt>
      <trkpt lat="45.87352" lon="3.03776">
        <ele>518.6</ele>
        <time>1970-01-01T00:00:00Z</time>
      </trkpt>
      <trkpt lat="45.87359" lon="3.03766">
        <ele>521.1</ele>
        <time>1970-01-01T00:00:00Z</time>
      </trkpt>
      <trkpt lat="45.87357" lon="3.03747">
        <ele>522.8</ele>
        <time>1970-01-01T00:00:00Z</time>
      </trkpt>
      <trkpt lat="45.87357" lon="3.03746">
        <ele>522.9</ele>
        <time>1970-01-01T00:00:00Z</time>
      </trkpt>
      <trkpt lat="45.87354" lon="3.03732">
        <ele>523.9</ele>
        <time>1970-01-01T00:00:00Z</time>
      </trkpt>
      <trkpt lat="45.87346" lon="3.03719">
        <ele>523.3</ele>
        <time>1970-01-01T00:00:00Z</time>
      </trkpt>
      <trkpt lat="45.87328" lon="3.03698">
        <ele>521.6</ele>
        <time>1970-01-01T00:00:00Z</time>
      </trkpt>
      <trkpt lat="45.87324" lon="3.03683">
        <ele>522.7</ele>
        <time>1970-01-01T00:00:00Z</time>
      </trkpt>
      <trkpt lat="45.87308" lon="3.03646">
        <ele>527.3</ele>
        <time>1970-01-01T00:00:00Z</time>
      </trkpt>
      <trkpt lat="45.87285" lon="3.03617">
        <ele>529.7</ele>
        <time>1970-01-01T00:00:00Z</time>
      </trkpt>
      <trkpt lat="45.87285" lon="3.03616">
        <ele>529.8</ele>
        <time>1970-01-01T00:00:00Z</time>
      </trkpt>
      <trkpt lat="45.87245" lon="3.03557">
        <ele>534.7</ele>
        <time>1970-01-01T00:00:00Z</time>
      </trkpt>
      <trkpt lat="45.87213" lon="3.03541">
        <ele>537.2</ele>
        <time>1970-01-01T00:00:00Z</time>
      </trkpt>
      <trkpt lat="45.87199" lon="3.03531">
        <ele>538.7</ele>
        <time>1970-01-01T00:00:00Z</time>
      </trkpt>
      <trkpt lat="45.87194" lon="3.03515">
        <ele>541.9</ele>
        <time>1970-01-01T00:00:00Z</time>
      </trkpt>
      <trkpt lat="45.87216" lon="3.03423">
        <ele>557.8</ele>
        <time>1970-01-01T00:00:00Z</time>
      </trkpt>
      <trkpt lat="45.87213" lon="3.03395">
        <ele>558.7</ele>
        <time>1970-01-01T00:00:00Z</time>
      </trkpt>
      <trkpt lat="45.87275" lon="3.03356">
        <ele>569.5</ele>
        <time>1970-01-01T00:00:00Z</time>
      </trkpt>
      <trkpt lat="45.87294" lon="3.03344">
        <ele>573</ele>
        <time>1970-01-01T00:00:00Z</time>
      </trkpt>
      <trkpt lat="45.87313" lon="3.03319">
        <ele>575.9</ele>
        <time>1970-01-01T00:00:00Z</time>
      </trkpt>
      <trkpt lat="45.87327" lon="3.03286">
        <ele>577.2</ele>
        <time>1970-01-01T00:00:00Z</time>
      </trkpt>
      <trkpt lat="45.87348" lon="3.03261">
        <ele>579.3</ele>
        <time>1970-01-01T00:00:00Z</time>
      </trkpt>
      <trkpt lat="45.87398" lon="3.03219">
        <ele>582.7</ele>
        <time>1970-01-01T00:00:00Z</time>
      </trkpt>
      <trkpt lat="45.87353" lon="3.03207">
        <ele>578.5</ele>
        <time>1970-01-01T00:00:00Z</time>
      </trkpt>
      <trkpt lat="45.87323" lon="3.03177">
        <ele>575.6</ele>
        <time>1970-01-01T00:00:00Z</time>
      </trkpt>
      <trkpt lat="45.87318" lon="3.03166">
        <ele>575</ele>
        <time>1970-01-01T00:00:00Z</time>
      </trkpt>
      <trkpt lat="45.87318" lon="3.03165">
        <ele>575</ele>
        <time>1970-01-01T00:00:00Z</time>
      </trkpt>
      <trkpt lat="45.87302" lon="3.03125">
        <ele>574.9</ele>
        <time>1970-01-01T00:00:00Z</time>
      </trkpt>
      <trkpt lat="45.87276" lon="3.03026">
        <ele>578.5</ele>
        <time>1970-01-01T00:00:00Z</time>
      </trkpt>
      <trkpt lat="45.87267" lon="3.03006">
        <ele>579.4</ele>
        <time>1970-01-01T00:00:00Z</time>
      </trkpt>
      <trkpt lat="45.87267" lon="3.03005">
        <ele>579.4</ele>
        <time>1970-01-01T00:00:00Z</time>
      </trkpt>
      <trkpt lat="45.8724" lon="3.02947">
        <ele>581.3</ele>
        <time>1970-01-01T00:00:00Z</time>
      </trkpt>
      <trkpt lat="45.87205" lon="3.02915">
        <ele>580.8</ele>
        <time>1970-01-01T00:00:00Z</time>
      </trkpt>
      <trkpt lat="45.87181" lon="3.0289">
        <ele>579.5</ele>
        <time>1970-01-01T00:00:00Z</time>
      </trkpt>
      <trkpt lat="45.87138" lon="3.02869">
        <ele>576</ele>
        <time>1970-01-01T00:00:00Z</time>
      </trkpt>
      <trkpt lat="45.87106" lon="3.02864">
        <ele>573.3</ele>
        <time>1970-01-01T00:00:00Z</time>
      </trkpt>
      <trkpt lat="45.87092" lon="3.02863">
        <ele>572.1</ele>
        <time>1970-01-01T00:00:00Z</time>
      </trkpt>
      <trkpt lat="45.87105" lon="3.02812">
        <ele>575.5</ele>
        <time>1970-01-01T00:00:00Z</time>
      </trkpt>
      <trkpt lat="45.87116" lon="3.0276">
        <ele>579.7</ele>
        <time>1970-01-01T00:00:00Z</time>
      </trkpt>
      <trkpt lat="45.87133" lon="3.02699">
        <ele>586.9</ele>
        <time>1970-01-01T00:00:00Z</time>
      </trkpt>
      <trkpt lat="45.8715" lon="3.02638">
        <ele>592.2</ele>
        <time>1970-01-01T00:00:00Z</time>
      </trkpt>
      <trkpt lat="45.87149" lon="3.0257">
        <ele>599</ele>
        <time>1970-01-01T00:00:00Z</time>
      </trkpt>
      <trkpt lat="45.87147" lon="3.02503">
        <ele>605.4</ele>
        <time>1970-01-01T00:00:00Z</time>
      </trkpt>
      <trkpt lat="45.87156" lon="3.02445">
        <ele>610.1</ele>
        <time>1970-01-01T00:00:00Z</time>
      </trkpt>
      <trkpt lat="45.87217" lon="3.02364">
        <ele>614.5</ele>
        <time>1970-01-01T00:00:00Z</time>
      </trkpt>
      <trkpt lat="45.87238" lon="3.0232">
        <ele>616.3</ele>
        <time>1970-01-01T00:00:00Z</time>
      </trkpt>
      <trkpt lat="45.87243" lon="3.02292">
        <ele>617.4</ele>
        <time>1970-01-01T00:00:00Z</time>
      </trkpt>
      <trkpt lat="45.87233" lon="3.02201">
        <ele>619.8</ele>
        <time>1970-01-01T00:00:00Z</time>
      </trkpt>
      <trkpt lat="45.87222" lon="3.0211">
        <ele>620.8</ele>
        <time>1970-01-01T00:00:00Z</time>
      </trkpt>
      <trkpt lat="45.87212" lon="3.02019">
        <ele>623.3</ele>
        <time>1970-01-01T00:00:00Z</time>
      </trkpt>
      <trkpt lat="45.87207" lon="3.02003">
        <ele>624</ele>
        <time>1970-01-01T00:00:00Z</time>
      </trkpt>
      <trkpt lat="45.87175" lon="3.01994">
        <ele>626</ele>
        <time>1970-01-01T00:00:00Z</time>
      </trkpt>
      <trkpt lat="45.87123" lon="3.0189">
        <ele>635.2</ele>
        <time>1970-01-01T00:00:00Z</time>
      </trkpt>
      <trkpt lat="45.8712" lon="3.01832">
        <ele>638.5</ele>
        <time>1970-01-01T00:00:00Z</time>
      </trkpt>
      <trkpt lat="45.87123" lon="3.01762">
        <ele>643.6</ele>
        <time>1970-01-01T00:00:00Z</time>
      </trkpt>
      <trkpt lat="45.87132" lon="3.01737">
        <ele>645.8</ele>
        <time>1970-01-01T00:00:00Z</time>
      </trkpt>
      <trkpt lat="45.87142" lon="3.01715">
        <ele>647.9</ele>
        <time>1970-01-01T00:00:00Z</time>
      </trkpt>
      <trkpt lat="45.87168" lon="3.01646">
        <ele>653.5</ele>
        <time>1970-01-01T00:00:00Z</time>
      </trkpt>
      <trkpt lat="45.87185" lon="3.01625">
        <ele>655.6</ele>
        <time>1970-01-01T00:00:00Z</time>
      </trkpt>
      <trkpt lat="45.87209" lon="3.01609">
        <ele>656.9</ele>
        <time>1970-01-01T00:00:00Z</time>
      </trkpt>
      <trkpt lat="45.87212" lon="3.01608">
        <ele>657</ele>
        <time>1970-01-01T00:00:00Z</time>
      </trkpt>
      <trkpt lat="45.87227" lon="3.01558">
        <ele>658.9</ele>
        <time>1970-01-01T00:00:00Z</time>
      </trkpt>
      <trkpt lat="45.8724" lon="3.01511">
        <ele>660.6</ele>
        <time>1970-01-01T00:00:00Z</time>
      </trkpt>
      <trkpt lat="45.87239" lon="3.0142">
        <ele>661</ele>
        <time>1970-01-01T00:00:00Z</time>
      </trkpt>
      <trkpt lat="45.87211" lon="3.0132">
        <ele>663.2</ele>
        <time>1970-01-01T00:00:00Z</time>
      </trkpt>
      <trkpt lat="45.87207" lon="3.01238">
        <ele>666.4</ele>
        <time>1970-01-01T00:00:00Z</time>
      </trkpt>
      <trkpt lat="45.87197" lon="3.01185">
        <ele>668.3</ele>
        <time>1970-01-01T00:00:00Z</time>
      </trkpt>
      <trkpt lat="45.87189" lon="3.0116">
        <ele>669.4</ele>
        <time>1970-01-01T00:00:00Z</time>
      </trkpt>
      <trkpt lat="45.87171" lon="3.01123">
        <ele>671.2</ele>
        <time>1970-01-01T00:00:00Z</time>
      </trkpt>
      <trkpt lat="45.87158" lon="3.01073">
        <ele>673.9</ele>
        <time>1970-01-01T00:00:00Z</time>
      </trkpt>
      <trkpt lat="45.87156" lon="3.01026">
        <ele>676.1</ele>
        <time>1970-01-01T00:00:00Z</time>
      </trkpt>
      <trkpt lat="45.87147" lon="3.00949">
        <ele>680.5</ele>
        <time>1970-01-01T00:00:00Z</time>
      </trkpt>
      <trkpt lat="45.87137" lon="3.00873">
        <ele>684.4</ele>
        <time>1970-01-01T00:00:00Z</time>
      </trkpt>
      <trkpt lat="45.87121" lon="3.00789">
        <ele>688.9</ele>
        <time>1970-01-01T00:00:00Z</time>
      </trkpt>
      <trkpt lat="45.87106" lon="3.00769">
        <ele>690</ele>
        <time>1970-01-01T00:00:00Z</time>
      </trkpt>
      <trkpt lat="45.87056" lon="3.0076">
        <ele>693.1</ele>
        <time>1970-01-01T00:00:00Z</time>
      </trkpt>
      <trkpt lat="45.87045" lon="3.00731">
        <ele>696.3</ele>
        <time>1970-01-01T00:00:00Z</time>
      </trkpt>
      <trkpt lat="45.87043" lon="3.00621">
        <ele>706.1</ele>
        <time>1970-01-01T00:00:00Z</time>
      </trkpt>
      <trkpt lat="45.87057" lon="3.006">
        <ele>707.5</ele>
        <time>1970-01-01T00:00:00Z</time>
      </trkpt>
      <trkpt lat="45.87081" lon="3.0058">
        <ele>708.4</ele>
        <time>1970-01-01T00:00:00Z</time>
      </trkpt>
      <trkpt lat="45.87092" lon="3.00554">
        <ele>710.6</ele>
        <time>1970-01-01T00:00:00Z</time>
      </trkpt>
      <trkpt lat="45.87096" lon="3.00518">
        <ele>713.8</ele>
        <time>1970-01-01T00:00:00Z</time>
      </trkpt>
      <trkpt lat="45.87092" lon="3.00451">
        <ele>717</ele>
        <time>1970-01-01T00:00:00Z</time>
      </trkpt>
      <trkpt lat="45.87088" lon="3.00384">
        <ele>718.2</ele>
        <time>1970-01-01T00:00:00Z</time>
      </trkpt>
      <trkpt lat="45.87088" lon="3.00383">
        <ele>718.2</ele>
        <time>1970-01-01T00:00:00Z</time>
      </trkpt>
      <trkpt lat="45.87085" lon="3.0033">
        <ele>718.2</ele>
        <time>1970-01-01T00:00:00Z</time>
      </trkpt>
      <trkpt lat="45.87084" lon="3.00227">
        <ele>721.1</ele>
        <time>1970-01-01T00:00:00Z</time>
      </trkpt>
      <trkpt lat="45.87082" lon="3.00125">
        <ele>725.1</ele>
        <time>1970-01-01T00:00:00Z</time>
      </trkpt>
      <trkpt lat="45.87088" lon="3.00055">
        <ele>728.4</ele>
        <time>1970-01-01T00:00:00Z</time>
      </trkpt>
      <trkpt lat="45.87083" lon="2.9995">
        <ele>736</ele>
        <time>1970-01-01T00:00:00Z</time>
      </trkpt>
      <trkpt lat="45.87078" lon="2.99845">
        <ele>743.3</ele>
        <time>1970-01-01T00:00:00Z</time>
      </trkpt>
      <trkpt lat="45.87078" lon="2.99718">
        <ele>749.7</ele>
        <time>1970-01-01T00:00:00Z</time>
      </trkpt>
      <trkpt lat="45.87082" lon="2.9964">
        <ele>753.7</ele>
        <time>1970-01-01T00:00:00Z</time>
      </trkpt>
      <trkpt lat="45.8708" lon="2.99559">
        <ele>759.2</ele>
        <time>1970-01-01T00:00:00Z</time>
      </trkpt>
      <trkpt lat="45.87084" lon="2.99521">
        <ele>762.3</ele>
        <time>1970-01-01T00:00:00Z</time>
      </trkpt>
      <trkpt lat="45.8709" lon="2.9954">
        <ele>760.9</ele>
        <time>1970-01-01T00:00:00Z</time>
      </trkpt>
      <trkpt lat="45.871" lon="2.9955">
        <ele>760.4</ele>
        <time>1970-01-01T00:00:00Z</time>
      </trkpt>
      <trkpt lat="45.87115" lon="2.99555">
        <ele>760.5</ele>
        <time>1970-01-01T00:00:00Z</time>
      </trkpt>
      <trkpt lat="45.87134" lon="2.99555">
        <ele>761.2</ele>
        <time>1970-01-01T00:00:00Z</time>
      </trkpt>
      <trkpt lat="45.8715" lon="2.99551">
        <ele>762.1</ele>
        <time>1970-01-01T00:00:00Z</time>
      </trkpt>
      <trkpt lat="45.87168" lon="2.99543">
        <ele>763.4</ele>
        <time>1970-01-01T00:00:00Z</time>
      </trkpt>
      <trkpt lat="45.8725" lon="2.9951">
        <ele>768.2</ele>
        <time>1970-01-01T00:00:00Z</time>
      </trkpt>
      <trkpt lat="45.87276" lon="2.99459">
        <ele>771.2</ele>
        <time>1970-01-01T00:00:00Z</time>
      </trkpt>
      <trkpt lat="45.87295" lon="2.99436">
        <ele>772.1</ele>
        <time>1970-01-01T00:00:00Z</time>
      </trkpt>
      <trkpt lat="45.87301" lon="2.99414">
        <ele>773.2</ele>
        <time>1970-01-01T00:00:00Z</time>
      </trkpt>
      <trkpt lat="45.87304" lon="2.99299">
        <ele>775.6</ele>
        <time>1970-01-01T00:00:00Z</time>
      </trkpt>
      <trkpt lat="45.87319" lon="2.9929">
        <ele>775.6</ele>
        <time>1970-01-01T00:00:00Z</time>
      </trkpt>
      <trkpt lat="45.87339" lon="2.99257">
        <ele>775.9</ele>
        <time>1970-01-01T00:00:00Z</time>
      </trkpt>
      <trkpt lat="45.87348" lon="2.99232">
        <ele>776.8</ele>
        <time>1970-01-01T00:00:00Z</time>
      </trkpt>
      <trkpt lat="45.87354" lon="2.99207">
        <ele>777.9</ele>
        <time>1970-01-01T00:00:00Z</time>
      </trkpt>
      <trkpt lat="45.87358" lon="2.99192">
        <ele>778.6</ele>
        <time>1970-01-01T00:00:00Z</time>
      </trkpt>
      <trkpt lat="45.87382" lon="2.99133">
        <ele>780</ele>
        <time>1970-01-01T00:00:00Z</time>
      </trkpt>
      <trkpt lat="45.87398" lon="2.99082">
        <ele>780.4</ele>
        <time>1970-01-01T00:00:00Z</time>
      </trkpt>
      <trkpt lat="45.87404" lon="2.9905">
        <ele>779.6</ele>
        <time>1970-01-01T00:00:00Z</time>
      </trkpt>
      <trkpt lat="45.87414" lon="2.9902">
        <ele>778.6</ele>
        <time>1970-01-01T00:00:00Z</time>
      </trkpt>
      <trkpt lat="45.8742" lon="2.9899">
        <ele>777.6</ele>
        <time>1970-01-01T00:00:00Z</time>
      </trkpt>
      <trkpt lat="45.87433" lon="2.98974">
        <ele>776.6</ele>
        <time>1970-01-01T00:00:00Z</time>
      </trkpt>
      <trkpt lat="45.87502" lon="2.98943">
        <ele>771.4</ele>
        <time>1970-01-01T00:00:00Z</time>
      </trkpt>
      <trkpt lat="45.87538" lon="2.98945">
        <ele>768.5</ele>
        <time>1970-01-01T00:00:00Z</time>
      </trkpt>
      <trkpt lat="45.87575" lon="2.98995">
        <ele>770</ele>
        <time>1970-01-01T00:00:00Z</time>
      </trkpt>
      <trkpt lat="45.87597" lon="2.99033">
        <ele>769.5</ele>
        <time>1970-01-01T00:00:00Z</time>
      </trkpt>
      <trkpt lat="45.87597" lon="2.99032">
        <ele>769.5</ele>
        <time>1970-01-01T00:00:00Z</time>
      </trkpt>
      <trkpt lat="45.87637" lon="2.99101">
        <ele>765.3</ele>
        <time>1970-01-01T00:00:00Z</time>
      </trkpt>
      <trkpt lat="45.87662" lon="2.99132">
        <ele>761.2</ele>
        <time>1970-01-01T00:00:00Z</time>
      </trkpt>
      <trkpt lat="45.87673" lon="2.99078">
        <ele>761</ele>
        <time>1970-01-01T00:00:00Z</time>
      </trkpt>
      <trkpt lat="45.87697" lon="2.98999">
        <ele>761</ele>
        <time>1970-01-01T00:00:00Z</time>
      </trkpt>
      <trkpt lat="45.87736" lon="2.99098">
        <ele>760.7</ele>
        <time>1970-01-01T00:00:00Z</time>
      </trkpt>
      <trkpt lat="45.87773" lon="2.99162">
        <ele>760.2</ele>
        <time>1970-01-01T00:00:00Z</time>
      </trkpt>
      <trkpt lat="45.87773" lon="2.99161">
        <ele>760.3</ele>
        <time>1970-01-01T00:00:00Z</time>
      </trkpt>
      <trkpt lat="45.878" lon="2.99213">
        <ele>759.7</ele>
        <time>1970-01-01T00:00:00Z</time>
      </trkpt>
      <trkpt lat="45.87833" lon="2.99268">
        <ele>760</ele>
        <time>1970-01-01T00:00:00Z</time>
      </trkpt>
      <trkpt lat="45.87865" lon="2.99324">
        <ele>760.4</ele>
        <time>1970-01-01T00:00:00Z</time>
      </trkpt>
      <trkpt lat="45.87895" lon="2.99363">
        <ele>760.3</ele>
        <time>1970-01-01T00:00:00Z</time>
      </trkpt>
      <trkpt lat="45.87925" lon="2.99381">
        <ele>760.1</ele>
        <time>1970-01-01T00:00:00Z</time>
      </trkpt>
      <trkpt lat="45.87941" lon="2.99382">
        <ele>759.3</ele>
        <time>1970-01-01T00:00:00Z</time>
      </trkpt>
      <trkpt lat="45.87985" lon="2.99378">
        <ele>757.5</ele>
        <time>1970-01-01T00:00:00Z</time>
      </trkpt>
      <trkpt lat="45.88009" lon="2.9938">
        <ele>756.9</ele>
        <time>1970-01-01T00:00:00Z</time>
      </trkpt>
      <trkpt lat="45.88045" lon="2.99398">
        <ele>756.4</ele>
        <time>1970-01-01T00:00:00Z</time>
      </trkpt>
      <trkpt lat="45.88084" lon="2.99422">
        <ele>756</ele>
        <time>1970-01-01T00:00:00Z</time>
      </trkpt>
      <trkpt lat="45.88083" lon="2.99422">
        <ele>755.9</ele>
        <time>1970-01-01T00:00:00Z</time>
      </trkpt>
      <trkpt lat="45.88097" lon="2.99429">
        <ele>757.8</ele>
        <time>1970-01-01T00:00:00Z</time>
      </trkpt>
      <trkpt lat="45.88101" lon="2.99421">
        <ele>758.5</ele>
        <time>1970-01-01T00:00:00Z</time>
      </trkpt>
      <trkpt lat="45.88116" lon="2.99359">
        <ele>761.3</ele>
        <time>1970-01-01T00:00:00Z</time>
      </trkpt>
      <trkpt lat="45.88139" lon="2.99283">
        <ele>762.9</ele>
        <time>1970-01-01T00:00:00Z</time>
      </trkpt>
      <trkpt lat="45.88159" lon="2.99272">
        <ele>762.1</ele>
        <time>1970-01-01T00:00:00Z</time>
      </trkpt>
      <trkpt lat="45.88188" lon="2.99247">
        <ele>760.3</ele>
        <time>1970-01-01T00:00:00Z</time>
      </trkpt>
      <trkpt lat="45.88204" lon="2.99217">
        <ele>760.8</ele>
        <time>1970-01-01T00:00:00Z</time>
      </trkpt>
      <trkpt lat="45.88222" lon="2.99175">
        <ele>761.7</ele>
        <time>1970-01-01T00:00:00Z</time>
      </trkpt>
      <trkpt lat="45.88258" lon="2.9915">
        <ele>763</ele>
        <time>1970-01-01T00:00:00Z</time>
      </trkpt>
      <trkpt lat="45.88267" lon="2.99147">
        <ele>763.5</ele>
        <time>1970-01-01T00:00:00Z</time>
      </trkpt>
      <trkpt lat="45.8828" lon="2.99148">
        <ele>763.8</ele>
        <time>1970-01-01T00:00:00Z</time>
      </trkpt>
      <trkpt lat="45.8831" lon="2.99169">
        <ele>763.1</ele>
        <time>1970-01-01T00:00:00Z</time>
      </trkpt>
      <trkpt lat="45.88328" lon="2.99192">
        <ele>763.5</ele>
        <time>1970-01-01T00:00:00Z</time>
      </trkpt>
      <trkpt lat="45.8834" lon="2.99218">
        <ele>764.2</ele>
        <time>1970-01-01T00:00:00Z</time>
      </trkpt>
      <trkpt lat="45.88358" lon="2.99244">
        <ele>766.3</ele>
        <time>1970-01-01T00:00:00Z</time>
      </trkpt>
      <trkpt lat="45.88364" lon="2.99255">
        <ele>767.3</ele>
        <time>1970-01-01T00:00:00Z</time>
      </trkpt>
      <trkpt lat="45.88363" lon="2.99255">
        <ele>767.2</ele>
        <time>1970-01-01T00:00:00Z</time>
      </trkpt>
      <trkpt lat="45.88376" lon="2.99278">
        <ele>770.1</ele>
        <time>1970-01-01T00:00:00Z</time>
      </trkpt>
      <trkpt lat="45.88386" lon="2.99317">
        <ele>773.5</ele>
        <time>1970-01-01T00:00:00Z</time>
      </trkpt>
      <trkpt lat="45.88389" lon="2.99338">
        <ele>774.9</ele>
        <time>1970-01-01T00:00:00Z</time>
      </trkpt>
      <trkpt lat="45.88408" lon="2.99421">
        <ele>780.5</ele>
        <time>1970-01-01T00:00:00Z</time>
      </trkpt>
      <trkpt lat="45.88467" lon="2.99503">
        <ele>786</ele>
        <time>1970-01-01T00:00:00Z</time>
      </trkpt>
      <trkpt lat="45.88496" lon="2.99547">
        <ele>789.7</ele>
        <time>1970-01-01T00:00:00Z</time>
      </trkpt>
      <trkpt lat="45.88523" lon="2.99598">
        <ele>792</ele>
        <time>1970-01-01T00:00:00Z</time>
      </trkpt>
      <trkpt lat="45.88572" lon="2.99703">
        <ele>794.4</ele>
        <time>1970-01-01T00:00:00Z</time>
      </trkpt>
      <trkpt lat="45.88578" lon="2.99722">
        <ele>795</ele>
        <time>1970-01-01T00:00:00Z</time>
      </trkpt>
      <trkpt lat="45.88581" lon="2.99745">
        <ele>795.8</ele>
        <time>1970-01-01T00:00:00Z</time>
      </trkpt>
      <trkpt lat="45.88589" lon="2.99777">
        <ele>794.5</ele>
        <time>1970-01-01T00:00:00Z</time>
      </trkpt>
      <trkpt lat="45.88619" lon="2.99852">
        <ele>791.8</ele>
        <time>1970-01-01T00:00:00Z</time>
      </trkpt>
      <trkpt lat="45.88649" lon="2.99928">
        <ele>789.7</ele>
        <time>1970-01-01T00:00:00Z</time>
      </trkpt>
      <trkpt lat="45.88672" lon="2.99977">
        <ele>786.5</ele>
        <time>1970-01-01T00:00:00Z</time>
      </trkpt>
      <trkpt lat="45.887" lon="3.00023">
        <ele>783.6</ele>
        <time>1970-01-01T00:00:00Z</time>
      </trkpt>
      <trkpt lat="45.88731" lon="3.00095">
        <ele>779.6</ele>
        <time>1970-01-01T00:00:00Z</time>
      </trkpt>
      <trkpt lat="45.88762" lon="3.00167">
        <ele>773.3</ele>
        <time>1970-01-01T00:00:00Z</time>
      </trkpt>
      <trkpt lat="45.8879" lon="3.00247">
        <ele>767.2</ele>
        <time>1970-01-01T00:00:00Z</time>
      </trkpt>
      <trkpt lat="45.88818" lon="3.00327">
        <ele>764.1</ele>
        <time>1970-01-01T00:00:00Z</time>
      </trkpt>
      <trkpt lat="45.88821" lon="3.00341">
        <ele>763.5</ele>
        <time>1970-01-01T00:00:00Z</time>
      </trkpt>
      <trkpt lat="45.88825" lon="3.00343">
        <ele>763.2</ele>
        <time>1970-01-01T00:00:00Z</time>
      </trkpt>
      <trkpt lat="45.88837" lon="3.00348">
        <ele>762.2</ele>
        <time>1970-01-01T00:00:00Z</time>
      </trkpt>
      <trkpt lat="45.88865" lon="3.00366">
        <ele>759.2</ele>
        <time>1970-01-01T00:00:00Z</time>
      </trkpt>
      <trkpt lat="45.88908" lon="3.0038">
        <ele>755</ele>
        <time>1970-01-01T00:00:00Z</time>
      </trkpt>
      <trkpt lat="45.88948" lon="3.00381">
        <ele>751.6</ele>
        <time>1970-01-01T00:00:00Z</time>
      </trkpt>
      <trkpt lat="45.88971" lon="3.00378">
        <ele>749.8</ele>
        <time>1970-01-01T00:00:00Z</time>
      </trkpt>
      <trkpt lat="45.8902" lon="3.00355">
        <ele>747.9</ele>
        <time>1970-01-01T00:00:00Z</time>
      </trkpt>
      <trkpt lat="45.89038" lon="3.00359">
        <ele>746.9</ele>
        <time>1970-01-01T00:00:00Z</time>
      </trkpt>
      <trkpt lat="45.89071" lon="3.00376">
        <ele>744.9</ele>
        <time>1970-01-01T00:00:00Z</time>
      </trkpt>
      <trkpt lat="45.8907" lon="3.0039">
        <ele>744.4</ele>
        <time>1970-01-01T00:00:00Z</time>
      </trkpt>
      <trkpt lat="45.89082" lon="3.00457">
        <ele>742.5</ele>
        <time>1970-01-01T00:00:00Z</time>
      </trkpt>
      <trkpt lat="45.89093" lon="3.00524">
        <ele>742.4</ele>
        <time>1970-01-01T00:00:00Z</time>
      </trkpt>
      <trkpt lat="45.89095" lon="3.0057">
        <ele>741.6</ele>
        <time>1970-01-01T00:00:00Z</time>
      </trkpt>
      <trkpt lat="45.89091" lon="3.0064">
        <ele>742.7</ele>
        <time>1970-01-01T00:00:00Z</time>
      </trkpt>
      <trkpt lat="45.89081" lon="3.00705">
        <ele>743.7</ele>
        <time>1970-01-01T00:00:00Z</time>
      </trkpt>
      <trkpt lat="45.89081" lon="3.00747">
        <ele>744.7</ele>
        <time>1970-01-01T00:00:00Z</time>
      </trkpt>
      <trkpt lat="45.89069" lon="3.00806">
        <ele>742</ele>
        <time>1970-01-01T00:00:00Z</time>
      </trkpt>
      <trkpt lat="45.89063" lon="3.00917">
        <ele>739.8</ele>
        <time>1970-01-01T00:00:00Z</time>
      </trkpt>
      <trkpt lat="45.89063" lon="3.00965">
        <ele>739.4</ele>
        <time>1970-01-01T00:00:00Z</time>
      </trkpt>
      <trkpt lat="45.89069" lon="3.01005">
        <ele>739.9</ele>
        <time>1970-01-01T00:00:00Z</time>
      </trkpt>
      <trkpt lat="45.89068" lon="3.01029">
        <ele>739.4</ele>
        <time>1970-01-01T00:00:00Z</time>
      </trkpt>
      <trkpt lat="45.89074" lon="3.01051">
        <ele>740</ele>
        <time>1970-01-01T00:00:00Z</time>
      </trkpt>
      <trkpt lat="45.89083" lon="3.01099">
        <ele>740.4</ele>
        <time>1970-01-01T00:00:00Z</time>
      </trkpt>
      <trkpt lat="45.89085" lon="3.01125">
        <ele>739.7</ele>
        <time>1970-01-01T00:00:00Z</time>
      </trkpt>
      <trkpt lat="45.89085" lon="3.01124">
        <ele>739.7</ele>
        <time>1970-01-01T00:00:00Z</time>
      </trkpt>
      <trkpt lat="45.89091" lon="3.01171">
        <ele>739.2</ele>
        <time>1970-01-01T00:00:00Z</time>
      </trkpt>
      <trkpt lat="45.89087" lon="3.012">
        <ele>739</ele>
        <time>1970-01-01T00:00:00Z</time>
      </trkpt>
      <trkpt lat="45.89079" lon="3.01232">
        <ele>738.1</ele>
        <time>1970-01-01T00:00:00Z</time>
      </trkpt>
      <trkpt lat="45.89078" lon="3.0125">
        <ele>738.2</ele>
        <time>1970-01-01T00:00:00Z</time>
      </trkpt>
      <trkpt lat="45.89086" lon="3.01303">
        <ele>740.6</ele>
        <time>1970-01-01T00:00:00Z</time>
      </trkpt>
      <trkpt lat="45.89086" lon="3.01347">
        <ele>742.2</ele>
        <time>1970-01-01T00:00:00Z</time>
      </trkpt>
      <trkpt lat="45.89077" lon="3.01372">
        <ele>743.2</ele>
        <time>1970-01-01T00:00:00Z</time>
      </trkpt>
      <trkpt lat="45.89068" lon="3.01385">
        <ele>743.3</ele>
        <time>1970-01-01T00:00:00Z</time>
      </trkpt>
      <trkpt lat="45.89038" lon="3.01399">
        <ele>741.2</ele>
        <time>1970-01-01T00:00:00Z</time>
      </trkpt>
      <trkpt lat="45.89016" lon="3.01421">
        <ele>739.9</ele>
        <time>1970-01-01T00:00:00Z</time>
      </trkpt>
      <trkpt lat="45.89008" lon="3.01458">
        <ele>740.3</ele>
        <time>1970-01-01T00:00:00Z</time>
      </trkpt>
      <trkpt lat="45.89003" lon="3.01506">
        <ele>741.3</ele>
        <time>1970-01-01T00:00:00Z</time>
      </trkpt>
      <trkpt lat="45.88985" lon="3.0157">
        <ele>739.9</ele>
        <time>1970-01-01T00:00:00Z</time>
      </trkpt>
      <trkpt lat="45.88979" lon="3.01584">
        <ele>739.2</ele>
        <time>1970-01-01T00:00:00Z</time>
      </trkpt>
      <trkpt lat="45.88975" lon="3.01586">
        <ele>738.7</ele>
        <time>1970-01-01T00:00:00Z</time>
      </trkpt>
      <trkpt lat="45.88939" lon="3.01603">
        <ele>734.8</ele>
        <time>1970-01-01T00:00:00Z</time>
      </trkpt>
      <trkpt lat="45.8891" lon="3.01611">
        <ele>732.1</ele>
        <time>1970-01-01T00:00:00Z</time>
      </trkpt>
      <trkpt lat="45.88881" lon="3.01614">
        <ele>730.1</ele>
        <time>1970-01-01T00:00:00Z</time>
      </trkpt>
      <trkpt lat="45.88808" lon="3.01639">
        <ele>729.4</ele>
        <time>1970-01-01T00:00:00Z</time>
      </trkpt>
      <trkpt lat="45.88772" lon="3.01634">
        <ele>728</ele>
        <time>1970-01-01T00:00:00Z</time>
      </trkpt>
      <trkpt lat="45.88767" lon="3.01649">
        <ele>729.6</ele>
        <time>1970-01-01T00:00:00Z</time>
      </trkpt>
      <trkpt lat="45.88769" lon="3.01664">
        <ele>731.4</ele>
        <time>1970-01-01T00:00:00Z</time>
      </trkpt>
      <trkpt lat="45.88774" lon="3.01679">
        <ele>731.8</ele>
        <time>1970-01-01T00:00:00Z</time>
      </trkpt>
      <trkpt lat="45.88791" lon="3.017">
        <ele>732.7</ele>
        <time>1970-01-01T00:00:00Z</time>
      </trkpt>
      <trkpt lat="45.88819" lon="3.01755">
        <ele>735.7</ele>
        <time>1970-01-01T00:00:00Z</time>
      </trkpt>
      <trkpt lat="45.8885" lon="3.01796">
        <ele>737.8</ele>
        <time>1970-01-01T00:00:00Z</time>
      </trkpt>
      <trkpt lat="45.88851" lon="3.01808">
        <ele>738</ele>
        <time>1970-01-01T00:00:00Z</time>
      </trkpt>
      <trkpt lat="45.88851" lon="3.01814">
        <ele>738</ele>
        <time>1970-01-01T00:00:00Z</time>
      </trkpt>
      <trkpt lat="45.88798" lon="3.01902">
        <ele>736.4</ele>
        <time>1970-01-01T00:00:00Z</time>
      </trkpt>
      <trkpt lat="45.88794" lon="3.01916">
        <ele>736.5</ele>
        <time>1970-01-01T00:00:00Z</time>
      </trkpt>
      <trkpt lat="45.88791" lon="3.01932">
        <ele>736.3</ele>
        <time>1970-01-01T00:00:00Z</time>
      </trkpt>
      <trkpt lat="45.88761" lon="3.0196">
        <ele>735.6</ele>
        <time>1970-01-01T00:00:00Z</time>
      </trkpt>
      <trkpt lat="45.88735" lon="3.01988">
        <ele>734.2</ele>
        <time>1970-01-01T00:00:00Z</time>
      </trkpt>
      <trkpt lat="45.8868" lon="3.02035">
        <ele>732.2</ele>
        <time>1970-01-01T00:00:00Z</time>
      </trkpt>
      <trkpt lat="45.88654" lon="3.02131">
        <ele>735.9</ele>
        <time>1970-01-01T00:00:00Z</time>
      </trkpt>
      <trkpt lat="45.8864" lon="3.02174">
        <ele>737.8</ele>
        <time>1970-01-01T00:00:00Z</time>
      </trkpt>
      <trkpt lat="45.88632" lon="3.0222">
        <ele>739.8</ele>
        <time>1970-01-01T00:00:00Z</time>
      </trkpt>
      <trkpt lat="45.88616" lon="3.02254">
        <ele>741.4</ele>
        <time>1970-01-01T00:00:00Z</time>
      </trkpt>
      <trkpt lat="45.88587" lon="3.02326">
        <ele>741.2</ele>
        <time>1970-01-01T00:00:00Z</time>
      </trkpt>
      <trkpt lat="45.8857" lon="3.0236">
        <ele>740</ele>
        <time>1970-01-01T00:00:00Z</time>
      </trkpt>
      <trkpt lat="45.88497" lon="3.02366">
        <ele>739</ele>
        <time>1970-01-01T00:00:00Z</time>
      </trkpt>
      <trkpt lat="45.88423" lon="3.02372">
        <ele>736.5</ele>
        <time>1970-01-01T00:00:00Z</time>
      </trkpt>
      <trkpt lat="45.8841" lon="3.02378">
        <ele>735.5</ele>
        <time>1970-01-01T00:00:00Z</time>
      </trkpt>
      <trkpt lat="45.88401" lon="3.02391">
        <ele>733.9</ele>
        <time>1970-01-01T00:00:00Z</time>
      </trkpt>
      <trkpt lat="45.88386" lon="3.02399">
        <ele>732.9</ele>
        <time>1970-01-01T00:00:00Z</time>
      </trkpt>
      <trkpt lat="45.88349" lon="3.02412">
        <ele>731.4</ele>
        <time>1970-01-01T00:00:00Z</time>
      </trkpt>
      <trkpt lat="45.88296" lon="3.0244">
        <ele>729.5</ele>
        <time>1970-01-01T00:00:00Z</time>
      </trkpt>
      <trkpt lat="45.88276" lon="3.02466">
        <ele>728.9</ele>
        <time>1970-01-01T00:00:00Z</time>
      </trkpt>
      <trkpt lat="45.88246" lon="3.02528">
        <ele>728.5</ele>
        <time>1970-01-01T00:00:00Z</time>
      </trkpt>
      <trkpt lat="45.88228" lon="3.0257">
        <ele>725.7</ele>
        <time>1970-01-01T00:00:00Z</time>
      </trkpt>
      <trkpt lat="45.8823" lon="3.02579">
        <ele>725.3</ele>
        <time>1970-01-01T00:00:00Z</time>
      </trkpt>
      <trkpt lat="45.8823" lon="3.02578">
        <ele>725.3</ele>
        <time>1970-01-01T00:00:00Z</time>
      </trkpt>
      <trkpt lat="45.88249" lon="3.02625">
        <ele>720.9</ele>
        <time>1970-01-01T00:00:00Z</time>
      </trkpt>
      <trkpt lat="45.88296" lon="3.02699">
        <ele>708.7</ele>
        <time>1970-01-01T00:00:00Z</time>
      </trkpt>
      <trkpt lat="45.88305" lon="3.02724">
        <ele>705.1</ele>
        <time>1970-01-01T00:00:00Z</time>
      </trkpt>
      <trkpt lat="45.88298" lon="3.02747">
        <ele>702.6</ele>
        <time>1970-01-01T00:00:00Z</time>
      </trkpt>
      <trkpt lat="45.88279" lon="3.02757">
        <ele>701.6</ele>
        <time>1970-01-01T00:00:00Z</time>
      </trkpt>
      <trkpt lat="45.88253" lon="3.02764">
        <ele>701.2</ele>
        <time>1970-01-01T00:00:00Z</time>
      </trkpt>
      <trkpt lat="45.88227" lon="3.0276">
        <ele>699.9</ele>
        <time>1970-01-01T00:00:00Z</time>
      </trkpt>
      <trkpt lat="45.88192" lon="3.02767">
        <ele>695.2</ele>
        <time>1970-01-01T00:00:00Z</time>
      </trkpt>
      <trkpt lat="45.88142" lon="3.02782">
        <ele>687.4</ele>
        <time>1970-01-01T00:00:00Z</time>
      </trkpt>
      <trkpt lat="45.88127" lon="3.02792">
        <ele>684.4</ele>
        <time>1970-01-01T00:00:00Z</time>
      </trkpt>
      <trkpt lat="45.88117" lon="3.02807">
        <ele>681.4</ele>
        <time>1970-01-01T00:00:00Z</time>
      </trkpt>
      <trkpt lat="45.8812" lon="3.02837">
        <ele>677.4</ele>
        <time>1970-01-01T00:00:00Z</time>
      </trkpt>
      <trkpt lat="45.88137" lon="3.02939">
        <ele>668.2</ele>
        <time>1970-01-01T00:00:00Z</time>
      </trkpt>
      <trkpt lat="45.88136" lon="3.02944">
        <ele>668</ele>
        <time>1970-01-01T00:00:00Z</time>
      </trkpt>
      <trkpt lat="45.88136" lon="3.02951">
        <ele>667.6</ele>
        <time>1970-01-01T00:00:00Z</time>
      </trkpt>
      <trkpt lat="45.88175" lon="3.0304">
        <ele>659.1</ele>
        <time>1970-01-01T00:00:00Z</time>
      </trkpt>
      <trkpt lat="45.88211" lon="3.031">
        <ele>653.1</ele>
        <time>1970-01-01T00:00:00Z</time>
      </trkpt>
      <trkpt lat="45.88245" lon="3.03149">
        <ele>648.7</ele>
        <time>1970-01-01T00:00:00Z</time>
      </trkpt>
      <trkpt lat="45.88279" lon="3.03198">
        <ele>643.8</ele>
        <time>1970-01-01T00:00:00Z</time>
      </trkpt>
      <trkpt lat="45.88288" lon="3.03198">
        <ele>641.4</ele>
        <time>1970-01-01T00:00:00Z</time>
      </trkpt>
      <trkpt lat="45.88288" lon="3.03131">
        <ele>641</ele>
        <time>1970-01-01T00:00:00Z</time>
      </trkpt>
      <trkpt lat="45.8829" lon="3.03113">
        <ele>641.6</ele>
        <time>1970-01-01T00:00:00Z</time>
      </trkpt>
      <trkpt lat="45.88294" lon="3.03099">
        <ele>641.9</ele>
        <time>1970-01-01T00:00:00Z</time>
      </trkpt>
      <trkpt lat="45.88302" lon="3.03083">
        <ele>642.3</ele>
        <time>1970-01-01T00:00:00Z</time>
      </trkpt>
      <trkpt lat="45.88309" lon="3.03079">
        <ele>642.4</ele>
        <time>1970-01-01T00:00:00Z</time>
      </trkpt>
      <trkpt lat="45.88313" lon="3.03079">
        <ele>642.1</ele>
        <time>1970-01-01T00:00:00Z</time>
      </trkpt>
      <trkpt lat="45.88326" lon="3.03086">
        <ele>640.2</ele>
        <time>1970-01-01T00:00:00Z</time>
      </trkpt>
      <trkpt lat="45.88348" lon="3.03115">
        <ele>633</ele>
        <time>1970-01-01T00:00:00Z</time>
      </trkpt>
      <trkpt lat="45.88359" lon="3.03119">
        <ele>630.4</ele>
        <time>1970-01-01T00:00:00Z</time>
      </trkpt>
      <trkpt lat="45.8837" lon="3.03116">
        <ele>628.7</ele>
        <time>1970-01-01T00:00:00Z</time>
      </trkpt>
      <trkpt lat="45.88401" lon="3.03102">
        <ele>625</ele>
        <time>1970-01-01T00:00:00Z</time>
      </trkpt>
      <trkpt lat="45.88414" lon="3.03099">
        <ele>623</ele>
        <time>1970-01-01T00:00:00Z</time>
      </trkpt>
      <trkpt lat="45.88436" lon="3.03108">
        <ele>616.2</ele>
        <time>1970-01-01T00:00:00Z</time>
      </trkpt>
      <trkpt lat="45.88443" lon="3.03109">
        <ele>614.2</ele>
        <time>1970-01-01T00:00:00Z</time>
      </trkpt>
      <trkpt lat="45.8845" lon="3.03103">
        <ele>613.3</ele>
        <time>1970-01-01T00:00:00Z</time>
      </trkpt>
      <trkpt lat="45.88453" lon="3.03096">
        <ele>613.6</ele>
        <time>1970-01-01T00:00:00Z</time>
      </trkpt>
      <trkpt lat="45.88458" lon="3.03047">
        <ele>618.5</ele>
        <time>1970-01-01T00:00:00Z</time>
      </trkpt>
      <trkpt lat="45.88463" lon="3.03029">
        <ele>619.2</ele>
        <time>1970-01-01T00:00:00Z</time>
      </trkpt>
      <trkpt lat="45.88484" lon="3.02971">
        <ele>621.3</ele>
        <time>1970-01-01T00:00:00Z</time>
      </trkpt>
      <trkpt lat="45.8849" lon="3.02964">
        <ele>620.6</ele>
        <time>1970-01-01T00:00:00Z</time>
      </trkpt>
      <trkpt lat="45.88496" lon="3.0296">
        <ele>619.4</ele>
        <time>1970-01-01T00:00:00Z</time>
      </trkpt>
      <trkpt lat="45.88508" lon="3.02959">
        <ele>619.4</ele>
        <time>1970-01-01T00:00:00Z</time>
      </trkpt>
      <trkpt lat="45.88515" lon="3.02961">
        <ele>619.9</ele>
        <time>1970-01-01T00:00:00Z</time>
      </trkpt>
      <trkpt lat="45.8852" lon="3.02966">
        <ele>619.7</ele>
        <time>1970-01-01T00:00:00Z</time>
      </trkpt>
      <trkpt lat="45.88538" lon="3.02994">
        <ele>617.9</ele>
        <time>1970-01-01T00:00:00Z</time>
      </trkpt>
      <trkpt lat="45.88542" lon="3.03003">
        <ele>617.1</ele>
        <time>1970-01-01T00:00:00Z</time>
      </trkpt>
      <trkpt lat="45.88562" lon="3.03082">
        <ele>608.4</ele>
        <time>1970-01-01T00:00:00Z</time>
      </trkpt>
      <trkpt lat="45.88575" lon="3.03113">
        <ele>605.4</ele>
        <time>1970-01-01T00:00:00Z</time>
      </trkpt>
      <trkpt lat="45.88606" lon="3.03167">
        <ele>607.4</ele>
        <time>1970-01-01T00:00:00Z</time>
      </trkpt>
      <trkpt lat="45.88629" lon="3.03201">
        <ele>612.4</ele>
        <time>1970-01-01T00:00:00Z</time>
      </trkpt>
      <trkpt lat="45.88652" lon="3.03215">
        <ele>618.7</ele>
        <time>1970-01-01T00:00:00Z</time>
      </trkpt>
      <trkpt lat="45.88673" lon="3.03224">
        <ele>624</ele>
        <time>1970-01-01T00:00:00Z</time>
      </trkpt>
      <trkpt lat="45.88735" lon="3.03257">
        <ele>635.2</ele>
        <time>1970-01-01T00:00:00Z</time>
      </trkpt>
      <trkpt lat="45.88772" lon="3.03264">
        <ele>640</ele>
        <time>1970-01-01T00:00:00Z</time>
      </trkpt>
      <trkpt lat="45.88802" lon="3.03263">
        <ele>641.8</ele>
        <time>1970-01-01T00:00:00Z</time>
      </trkpt>
      <trkpt lat="45.88814" lon="3.03257">
        <ele>642.7</ele>
        <time>1970-01-01T00:00:00Z</time>
      </trkpt>
      <trkpt lat="45.88819" lon="3.03252">
        <ele>643.1</ele>
        <time>1970-01-01T00:00:00Z</time>
      </trkpt>
      <trkpt lat="45.88832" lon="3.03232">
        <ele>645.9</ele>
        <time>1970-01-01T00:00:00Z</time>
      </trkpt>
      <trkpt lat="45.88869" lon="3.03125">
        <ele>648.3</ele>
        <time>1970-01-01T00:00:00Z</time>
      </trkpt>
      <trkpt lat="45.88876" lon="3.03087">
        <ele>653</ele>
        <time>1970-01-01T00:00:00Z</time>
      </trkpt>
      <trkpt lat="45.88882" lon="3.03068">
        <ele>655.8</ele>
        <time>1970-01-01T00:00:00Z</time>
      </trkpt>
      <trkpt lat="45.88887" lon="3.03059">
        <ele>656.7</ele>
        <time>1970-01-01T00:00:00Z</time>
      </trkpt>
      <trkpt lat="45.88896" lon="3.03051">
        <ele>656.3</ele>
        <time>1970-01-01T00:00:00Z</time>
      </trkpt>
      <trkpt lat="45.88922" lon="3.0304">
        <ele>652.8</ele>
        <time>1970-01-01T00:00:00Z</time>
      </trkpt>
      <trkpt lat="45.88953" lon="3.03041">
        <ele>648.4</ele>
        <time>1970-01-01T00:00:00Z</time>
      </trkpt>
      <trkpt lat="45.8896" lon="3.03038">
        <ele>648.4</ele>
        <time>1970-01-01T00:00:00Z</time>
      </trkpt>
      <trkpt lat="45.88971" lon="3.0303">
        <ele>649.3</ele>
        <time>1970-01-01T00:00:00Z</time>
      </trkpt>
      <trkpt lat="45.88987" lon="3.03">
        <ele>655.9</ele>
        <time>1970-01-01T00:00:00Z</time>
      </trkpt>
      <trkpt lat="45.89025" lon="3.02944">
        <ele>660</ele>
        <time>1970-01-01T00:00:00Z</time>
      </trkpt>
      <trkpt lat="45.89029" lon="3.02939">
        <ele>660.4</ele>
        <time>1970-01-01T00:00:00Z</time>
      </trkpt>
      <trkpt lat="45.8904" lon="3.02974">
        <ele>653.7</ele>
        <time>1970-01-01T00:00:00Z</time>
      </trkpt>
      <trkpt lat="45.89051" lon="3.02986">
        <ele>650.7</ele>
        <time>1970-01-01T00:00:00Z</time>
      </trkpt>
      <trkpt lat="45.89053" lon="3.02993">
        <ele>649.4</ele>
        <time>1970-01-01T00:00:00Z</time>
      </trkpt>
      <trkpt lat="45.89054" lon="3.03028">
        <ele>641</ele>
        <time>1970-01-01T00:00:00Z</time>
      </trkpt>
      <trkpt lat="45.89051" lon="3.03052">
        <ele>635</ele>
        <time>1970-01-01T00:00:00Z</time>
      </trkpt>
      <trkpt lat="45.89041" lon="3.0308">
        <ele>628.4</ele>
        <time>1970-01-01T00:00:00Z</time>
      </trkpt>
      <trkpt lat="45.89026" lon="3.03098">
        <ele>623.9</ele>
        <time>1970-01-01T00:00:00Z</time>
      </trkpt>
      <trkpt lat="45.89022" lon="3.03103">
        <ele>622.5</ele>
        <time>1970-01-01T00:00:00Z</time>
      </trkpt>
      <trkpt lat="45.89018" lon="3.03113">
        <ele>619.5</ele>
        <time>1970-01-01T00:00:00Z</time>
      </trkpt>
      <trkpt lat="45.89013" lon="3.03135">
        <ele>612.8</ele>
        <time>1970-01-01T00:00:00Z</time>
      </trkpt>
      <trkpt lat="45.89009" lon="3.03143">
        <ele>610.4</ele>
        <time>1970-01-01T00:00:00Z</time>
      </trkpt>
      <trkpt lat="45.88997" lon="3.03153">
        <ele>608.1</ele>
        <time>1970-01-01T00:00:00Z</time>
      </trkpt>
      <trkpt lat="45.88975" lon="3.03154">
        <ele>612.9</ele>
        <time>1970-01-01T00:00:00Z</time>
      </trkpt>
      <trkpt lat="45.88969" lon="3.03158">
        <ele>613.2</ele>
        <time>1970-01-01T00:00:00Z</time>
      </trkpt>
      <trkpt lat="45.88962" lon="3.03167">
        <ele>612.5</ele>
        <time>1970-01-01T00:00:00Z</time>
      </trkpt>
      <trkpt lat="45.88959" lon="3.03175">
        <ele>612.2</ele>
        <time>1970-01-01T00:00:00Z</time>
      </trkpt>
      <trkpt lat="45.88959" lon="3.0318">
        <ele>611.6</ele>
        <time>1970-01-01T00:00:00Z</time>
      </trkpt>
      <trkpt lat="45.88973" lon="3.03222">
        <ele>601.3</ele>
        <time>1970-01-01T00:00:00Z</time>
      </trkpt>
      <trkpt lat="45.88977" lon="3.03229">
        <ele>598.9</ele>
        <time>1970-01-01T00:00:00Z</time>
      </trkpt>
      <trkpt lat="45.88985" lon="3.0323">
        <ele>596</ele>
        <time>1970-01-01T00:00:00Z</time>
      </trkpt>
      <trkpt lat="45.89002" lon="3.03222">
        <ele>592.4</ele>
        <time>1970-01-01T00:00:00Z</time>
      </trkpt>
      <trkpt lat="45.89026" lon="3.03218">
        <ele>593.1</ele>
        <time>1970-01-01T00:00:00Z</time>
      </trkpt>
      <trkpt lat="45.89044" lon="3.03212">
        <ele>594.1</ele>
        <time>1970-01-01T00:00:00Z</time>
      </trkpt>
      <trkpt lat="45.89051" lon="3.03215">
        <ele>593.6</ele>
        <time>1970-01-01T00:00:00Z</time>
      </trkpt>
      <trkpt lat="45.89053" lon="3.03223">
        <ele>592.2</ele>
        <time>1970-01-01T00:00:00Z</time>
      </trkpt>
      <trkpt lat="45.89051" lon="3.03252">
        <ele>587.4</ele>
        <time>1970-01-01T00:00:00Z</time>
      </trkpt>
      <trkpt lat="45.89054" lon="3.03284">
        <ele>584.5</ele>
        <time>1970-01-01T00:00:00Z</time>
      </trkpt>
      <trkpt lat="45.89049" lon="3.03303">
        <ele>582.6</ele>
        <time>1970-01-01T00:00:00Z</time>
      </trkpt>
      <trkpt lat="45.89042" lon="3.0334">
        <ele>578.9</ele>
        <time>1970-01-01T00:00:00Z</time>
      </trkpt>
      <trkpt lat="45.89042" lon="3.0345">
        <ele>569.4</ele>
        <time>1970-01-01T00:00:00Z</time>
      </trkpt>
      <trkpt lat="45.89039" lon="3.03503">
        <ele>565</ele>
        <time>1970-01-01T00:00:00Z</time>
      </trkpt>
      <trkpt lat="45.89024" lon="3.03553">
        <ele>558</ele>
        <time>1970-01-01T00:00:00Z</time>
      </trkpt>
      <trkpt lat="45.89012" lon="3.03584">
        <ele>551.3</ele>
        <time>1970-01-01T00:00:00Z</time>
      </trkpt>
      <trkpt lat="45.88992" lon="3.0362">
        <ele>546.9</ele>
        <time>1970-01-01T00:00:00Z</time>
      </trkpt>
      <trkpt lat="45.88981" lon="3.03654">
        <ele>544.6</ele>
        <time>1970-01-01T00:00:00Z</time>
      </trkpt>
      <trkpt lat="45.88967" lon="3.03684">
        <ele>542.7</ele>
        <time>1970-01-01T00:00:00Z</time>
      </trkpt>
      <trkpt lat="45.88959" lon="3.03693">
        <ele>541.8</ele>
        <time>1970-01-01T00:00:00Z</time>
      </trkpt>
      <trkpt lat="45.88954" lon="3.03696">
        <ele>541.2</ele>
        <time>1970-01-01T00:00:00Z</time>
      </trkpt>
      <trkpt lat="45.88945" lon="3.03709">
        <ele>539</ele>
        <time>1970-01-01T00:00:00Z</time>
      </trkpt>
      <trkpt lat="45.88936" lon="3.03732">
        <ele>534.6</ele>
        <time>1970-01-01T00:00:00Z</time>
      </trkpt>
      <trkpt lat="45.88927" lon="3.0379">
        <ele>530.1</ele>
        <time>1970-01-01T00:00:00Z</time>
      </trkpt>
      <trkpt lat="45.88923" lon="3.03797">
        <ele>529</ele>
        <time>1970-01-01T00:00:00Z</time>
      </trkpt>
      <trkpt lat="45.88918" lon="3.038">
        <ele>527.4</ele>
        <time>1970-01-01T00:00:00Z</time>
      </trkpt>
      <trkpt lat="45.88902" lon="3.03805">
        <ele>527.6</ele>
        <time>1970-01-01T00:00:00Z</time>
      </trkpt>
      <trkpt lat="45.88896" lon="3.03809">
        <ele>527.7</ele>
        <time>1970-01-01T00:00:00Z</time>
      </trkpt>
      <trkpt lat="45.88881" lon="3.03836">
        <ele>526.2</ele>
        <time>1970-01-01T00:00:00Z</time>
      </trkpt>
      <trkpt lat="45.88872" lon="3.03848">
        <ele>526</ele>
        <time>1970-01-01T00:00:00Z</time>
      </trkpt>
      <trkpt lat="45.8886" lon="3.03857">
        <ele>524.8</ele>
        <time>1970-01-01T00:00:00Z</time>
      </trkpt>
      <trkpt lat="45.88833" lon="3.03894">
        <ele>517.7</ele>
        <time>1970-01-01T00:00:00Z</time>
      </trkpt>
      <trkpt lat="45.88827" lon="3.03912">
        <ele>515</ele>
        <time>1970-01-01T00:00:00Z</time>
      </trkpt>
      <trkpt lat="45.88827" lon="3.03911">
        <ele>515.2</ele>
        <time>1970-01-01T00:00:00Z</time>
      </trkpt>
      <trkpt lat="45.88819" lon="3.03897">
        <ele>516.2</ele>
        <time>1970-01-01T00:00:00Z</time>
      </trkpt>
      <trkpt lat="45.88813" lon="3.03893">
        <ele>516.3</ele>
        <time>1970-01-01T00:00:00Z</time>
      </trkpt>
      <trkpt lat="45.88803" lon="3.03892">
        <ele>515.6</ele>
        <time>1970-01-01T00:00:00Z</time>
      </trkpt>
      <trkpt lat="45.88781" lon="3.03894">
        <ele>513.7</ele>
        <time>1970-01-01T00:00:00Z</time>
      </trkpt>
      <trkpt lat="45.88769" lon="3.03892">
        <ele>513</ele>
        <time>1970-01-01T00:00:00Z</time>
      </trkpt>
      <trkpt lat="45.88763" lon="3.03888">
        <ele>513.1</ele>
        <time>1970-01-01T00:00:00Z</time>
      </trkpt>
      <trkpt lat="45.88756" lon="3.03879">
        <ele>513.9</ele>
        <time>1970-01-01T00:00:00Z</time>
      </trkpt>
      <trkpt lat="45.88726" lon="3.03807">
        <ele>526.1</ele>
        <time>1970-01-01T00:00:00Z</time>
      </trkpt>
      <trkpt lat="45.88693" lon="3.03744">
        <ele>530.8</ele>
        <time>1970-01-01T00:00:00Z</time>
      </trkpt>
      <trkpt lat="45.88649" lon="3.03691">
        <ele>537.5</ele>
        <time>1970-01-01T00:00:00Z</time>
      </trkpt>
      <trkpt lat="45.88624" lon="3.03664">
        <ele>539.4</ele>
        <time>1970-01-01T00:00:00Z</time>
      </trkpt>
      <trkpt lat="45.88617" lon="3.03654">
        <ele>540.7</ele>
        <time>1970-01-01T00:00:00Z</time>
      </trkpt>
      <trkpt lat="45.88608" lon="3.03636">
        <ele>542.6</ele>
        <time>1970-01-01T00:00:00Z</time>
      </trkpt>
      <trkpt lat="45.88595" lon="3.03618">
        <ele>542.9</ele>
        <time>1970-01-01T00:00:00Z</time>
      </trkpt>
      <trkpt lat="45.8858" lon="3.0359">
        <ele>544.1</ele>
        <time>1970-01-01T00:00:00Z</time>
      </trkpt>
      <trkpt lat="45.88574" lon="3.03576">
        <ele>547</ele>
        <time>1970-01-01T00:00:00Z</time>
      </trkpt>
      <trkpt lat="45.88567" lon="3.03533">
        <ele>553.5</ele>
        <time>1970-01-01T00:00:00Z</time>
      </trkpt>
      <trkpt lat="45.88554" lon="3.03439">
        <ele>565.7</ele>
        <time>1970-01-01T00:00:00Z</time>
      </trkpt>
      <trkpt lat="45.88551" lon="3.03405">
        <ele>569.5</ele>
        <time>1970-01-01T00:00:00Z</time>
      </trkpt>
      <trkpt lat="45.8852" lon="3.0331">
        <ele>574</ele>
        <time>1970-01-01T00:00:00Z</time>
      </trkpt>
      <trkpt lat="45.88511" lon="3.03264">
        <ele>576.9</ele>
        <time>1970-01-01T00:00:00Z</time>
      </trkpt>
      <trkpt lat="45.88504" lon="3.0326">
        <ele>575.8</ele>
        <time>1970-01-01T00:00:00Z</time>
      </trkpt>
      <trkpt lat="45.88498" lon="3.03263">
        <ele>575.3</ele>
        <time>1970-01-01T00:00:00Z</time>
      </trkpt>
      <trkpt lat="45.8849" lon="3.03275">
        <ele>576.5</ele>
        <time>1970-01-01T00:00:00Z</time>
      </trkpt>
      <trkpt lat="45.88485" lon="3.03292">
        <ele>576.7</ele>
        <time>1970-01-01T00:00:00Z</time>
      </trkpt>
      <trkpt lat="45.88493" lon="3.03337">
        <ele>570.7</ele>
        <time>1970-01-01T00:00:00Z</time>
      </trkpt>
      <trkpt lat="45.88489" lon="3.03389">
        <ele>572.6</ele>
        <time>1970-01-01T00:00:00Z</time>
      </trkpt>
      <trkpt lat="45.88477" lon="3.03482">
        <ele>576.2</ele>
        <time>1970-01-01T00:00:00Z</time>
      </trkpt>
      <trkpt lat="45.88477" lon="3.03503">
        <ele>575.3</ele>
        <time>1970-01-01T00:00:00Z</time>
      </trkpt>
      <trkpt lat="45.88472" lon="3.03549">
        <ele>576</ele>
        <time>1970-01-01T00:00:00Z</time>
      </trkpt>
      <trkpt lat="45.88468" lon="3.03558">
        <ele>577.4</ele>
        <time>1970-01-01T00:00:00Z</time>
      </trkpt>
      <trkpt lat="45.88462" lon="3.03565">
        <ele>579.9</ele>
        <time>1970-01-01T00:00:00Z</time>
      </trkpt>
      <trkpt lat="45.88443" lon="3.03582">
        <ele>587.4</ele>
        <time>1970-01-01T00:00:00Z</time>
      </trkpt>
      <trkpt lat="45.88433" lon="3.03601">
        <ele>591</ele>
        <time>1970-01-01T00:00:00Z</time>
      </trkpt>
      <trkpt lat="45.88431" lon="3.0361">
        <ele>591.4</ele>
        <time>1970-01-01T00:00:00Z</time>
      </trkpt>
      <trkpt lat="45.88437" lon="3.0364">
        <ele>587.7</ele>
        <time>1970-01-01T00:00:00Z</time>
      </trkpt>
      <trkpt lat="45.88455" lon="3.03683">
        <ele>582.2</ele>
        <time>1970-01-01T00:00:00Z</time>
      </trkpt>
      <trkpt lat="45.88455" lon="3.03682">
        <ele>582.1</ele>
        <time>1970-01-01T00:00:00Z</time>
      </trkpt>
      <trkpt lat="45.88493" lon="3.03755">
        <ele>587.1</ele>
        <time>1970-01-01T00:00:00Z</time>
      </trkpt>
      <trkpt lat="45.88498" lon="3.0377">
        <ele>588.2</ele>
        <time>1970-01-01T00:00:00Z</time>
      </trkpt>
      <trkpt lat="45.88499" lon="3.03783">
        <ele>589.6</ele>
        <time>1970-01-01T00:00:00Z</time>
      </trkpt>
      <trkpt lat="45.88488" lon="3.03769">
        <ele>588.5</ele>
        <time>1970-01-01T00:00:00Z</time>
      </trkpt>
      <trkpt lat="45.88483" lon="3.03765">
        <ele>588.4</ele>
        <time>1970-01-01T00:00:00Z</time>
      </trkpt>
      <trkpt lat="45.88476" lon="3.03768">
        <ele>588.9</ele>
        <time>1970-01-01T00:00:00Z</time>
      </trkpt>
      <trkpt lat="45.88459" lon="3.03795">
        <ele>589</ele>
        <time>1970-01-01T00:00:00Z</time>
      </trkpt>
      <trkpt lat="45.88451" lon="3.03793">
        <ele>588.7</ele>
        <time>1970-01-01T00:00:00Z</time>
      </trkpt>
      <trkpt lat="45.88446" lon="3.03784">
        <ele>589</ele>
        <time>1970-01-01T00:00:00Z</time>
      </trkpt>
      <trkpt lat="45.88412" lon="3.03753">
        <ele>593.3</ele>
        <time>1970-01-01T00:00:00Z</time>
      </trkpt>
      <trkpt lat="45.88379" lon="3.03741">
        <ele>593.1</ele>
        <time>1970-01-01T00:00:00Z</time>
      </trkpt>
      <trkpt lat="45.88334" lon="3.03712">
        <ele>598.1</ele>
        <time>1970-01-01T00:00:00Z</time>
      </trkpt>
      <trkpt lat="45.88289" lon="3.03684">
        <ele>601.7</ele>
        <time>1970-01-01T00:00:00Z</time>
      </trkpt>
      <trkpt lat="45.88263" lon="3.03663">
        <ele>606.5</ele>
        <time>1970-01-01T00:00:00Z</time>
      </trkpt>
      <trkpt lat="45.88225" lon="3.03637">
        <ele>614.5</ele>
        <time>1970-01-01T00:00:00Z</time>
      </trkpt>
      <trkpt lat="45.88188" lon="3.0362">
        <ele>620.4</ele>
        <time>1970-01-01T00:00:00Z</time>
      </trkpt>
      <trkpt lat="45.88168" lon="3.03618">
        <ele>621.3</ele>
        <time>1970-01-01T00:00:00Z</time>
      </trkpt>
      <trkpt lat="45.88142" lon="3.03624">
        <ele>622.3</ele>
        <time>1970-01-01T00:00:00Z</time>
      </trkpt>
      <trkpt lat="45.88115" lon="3.03633">
        <ele>622.2</ele>
        <time>1970-01-01T00:00:00Z</time>
      </trkpt>
      <trkpt lat="45.88076" lon="3.03652">
        <ele>618.3</ele>
        <time>1970-01-01T00:00:00Z</time>
      </trkpt>
      <trkpt lat="45.88069" lon="3.03653">
        <ele>618.2</ele>
        <time>1970-01-01T00:00:00Z</time>
      </trkpt>
      <trkpt lat="45.88063" lon="3.03652">
        <ele>618.8</ele>
        <time>1970-01-01T00:00:00Z</time>
      </trkpt>
      <trkpt lat="45.87993" lon="3.0366">
        <ele>618.6</ele>
        <time>1970-01-01T00:00:00Z</time>
      </trkpt>
      <trkpt lat="45.87962" lon="3.03656">
        <ele>623.5</ele>
        <time>1970-01-01T00:00:00Z</time>
      </trkpt>
      <trkpt lat="45.87942" lon="3.03658">
        <ele>624.6</ele>
        <time>1970-01-01T00:00:00Z</time>
      </trkpt>
      <trkpt lat="45.87932" lon="3.03657">
        <ele>626</ele>
        <time>1970-01-01T00:00:00Z</time>
      </trkpt>
      <trkpt lat="45.87865" lon="3.03664">
        <ele>630.4</ele>
        <time>1970-01-01T00:00:00Z</time>
      </trkpt>
      <trkpt lat="45.87823" lon="3.03664">
        <ele>635.3</ele>
        <time>1970-01-01T00:00:00Z</time>
      </trkpt>
      <trkpt lat="45.87783" lon="3.03675">
        <ele>635.5</ele>
        <time>1970-01-01T00:00:00Z</time>
      </trkpt>
      <trkpt lat="45.87776" lon="3.03678">
        <ele>635.2</ele>
        <time>1970-01-01T00:00:00Z</time>
      </trkpt>
      <trkpt lat="45.87754" lon="3.03689">
        <ele>633.8</ele>
        <time>1970-01-01T00:00:00Z</time>
      </trkpt>
      <trkpt lat="45.87734" lon="3.03686">
        <ele>634.7</ele>
        <time>1970-01-01T00:00:00Z</time>
      </trkpt>
      <trkpt lat="45.87694" lon="3.0369">
        <ele>631.9</ele>
        <time>1970-01-01T00:00:00Z</time>
      </trkpt>
      <trkpt lat="45.87661" lon="3.03683">
        <ele>632.3</ele>
        <time>1970-01-01T00:00:00Z</time>
      </trkpt>
      <trkpt lat="45.87623" lon="3.0367">
        <ele>629.6</ele>
        <time>1970-01-01T00:00:00Z</time>
      </trkpt>
      <trkpt lat="45.87581" lon="3.03629">
        <ele>627.9</ele>
        <time>1970-01-01T00:00:00Z</time>
      </trkpt>
      <trkpt lat="45.87556" lon="3.03596">
        <ele>623.4</ele>
        <time>1970-01-01T00:00:00Z</time>
      </trkpt>
      <trkpt lat="45.87526" lon="3.0353">
        <ele>621.5</ele>
        <time>1970-01-01T00:00:00Z</time>
      </trkpt>
      <trkpt lat="45.87499" lon="3.03516">
        <ele>615</ele>
        <time>1970-01-01T00:00:00Z</time>
      </trkpt>
      <trkpt lat="45.87433" lon="3.03474">
        <ele>604.9</ele>
        <time>1970-01-01T00:00:00Z</time>
      </trkpt>
      <trkpt lat="45.8738" lon="3.03458">
        <ele>591.8</ele>
        <time>1970-01-01T00:00:00Z</time>
      </trkpt>
      <trkpt lat="45.87364" lon="3.03438">
        <ele>589.2</ele>
        <time>1970-01-01T00:00:00Z</time>
      </trkpt>
      <trkpt lat="45.87347" lon="3.03427">
        <ele>585.1</ele>
        <time>1970-01-01T00:00:00Z</time>
      </trkpt>
      <trkpt lat="45.87334" lon="3.03426">
        <ele>581.2</ele>
        <time>1970-01-01T00:00:00Z</time>
      </trkpt>
      <trkpt lat="45.87333" lon="3.03426">
        <ele>580.9</ele>
        <time>1970-01-01T00:00:00Z</time>
      </trkpt>
      <trkpt lat="45.87332" lon="3.03426">
        <ele>580.7</ele>
        <time>1970-01-01T00:00:00Z</time>
      </trkpt>
      <trkpt lat="45.87324" lon="3.03437">
        <ele>577.7</ele>
        <time>1970-01-01T00:00:00Z</time>
      </trkpt>
      <trkpt lat="45.87317" lon="3.03428">
        <ele>577.1</ele>
        <time>1970-01-01T00:00:00Z</time>
      </trkpt>
      <trkpt lat="45.87313" lon="3.03419">
        <ele>577.3</ele>
        <time>1970-01-01T00:00:00Z</time>
      </trkpt>
      <trkpt lat="45.87314" lon="3.0341">
        <ele>577.7</ele>
        <time>1970-01-01T00:00:00Z</time>
      </trkpt>
      <trkpt lat="45.87306" lon="3.03402">
        <ele>575.9</ele>
        <time>1970-01-01T00:00:00Z</time>
      </trkpt>
      <trkpt lat="45.87284" lon="3.03393">
        <ele>571.3</ele>
        <time>1970-01-01T00:00:00Z</time>
      </trkpt>
      <trkpt lat="45.87273" lon="3.03393">
        <ele>569</ele>
        <time>1970-01-01T00:00:00Z</time>
      </trkpt>
      <trkpt lat="45.87265" lon="3.03362">
        <ele>567.5</ele>
        <time>1970-01-01T00:00:00Z</time>
      </trkpt>
      <trkpt lat="45.87213" lon="3.03395">
        <ele>558.7</ele>
        <time>1970-01-01T00:00:00Z</time>
      </trkpt>
      <trkpt lat="45.87216" lon="3.03423">
        <ele>557.8</ele>
        <time>1970-01-01T00:00:00Z</time>
      </trkpt>
      <trkpt lat="45.87194" lon="3.03515">
        <ele>541.9</ele>
        <time>1970-01-01T00:00:00Z</time>
      </trkpt>
      <trkpt lat="45.87199" lon="3.03531">
        <ele>538.7</ele>
        <time>1970-01-01T00:00:00Z</time>
      </trkpt>
      <trkpt lat="45.87213" lon="3.03541">
        <ele>537.2</ele>
        <time>1970-01-01T00:00:00Z</time>
      </trkpt>
      <trkpt lat="45.87245" lon="3.03557">
        <ele>534.7</ele>
        <time>1970-01-01T00:00:00Z</time>
      </trkpt>
      <trkpt lat="45.87281" lon="3.03612">
        <ele>529.8</ele>
        <time>1970-01-01T00:00:00Z</time>
      </trkpt>
      <trkpt lat="45.87308" lon="3.03646">
        <ele>527.3</ele>
        <time>1970-01-01T00:00:00Z</time>
      </trkpt>
      <trkpt lat="45.87275" lon="3.03713">
        <ele>517.2</ele>
        <time>1970-01-01T00:00:00Z</time>
      </trkpt>
      <trkpt lat="45.8726" lon="3.03744">
        <ele>514.7</ele>
        <time>1970-01-01T00:00:00Z</time>
      </trkpt>
      <trkpt lat="45.87244" lon="3.03733">
        <ele>514.6</ele>
        <time>1970-01-01T00:00:00Z</time>
      </trkpt>
    </trkseg>
  </trk>
</gpx>